This is the latest recevied weather packets stored in our database for station/object WS2Z. If no packets are shown the sender has not sent any weather packets the latest 1 day(s).
| Time | Temp. | Humidity | Pressure | Rain* | Wind** | Luminosity | Snow |
|---|---|---|---|---|---|---|---|
| 1777982967 | 20° C | 96% | 1015.1 hPa | 0 mm | 0.45 m/s, 177° | 49 W/m² | - |
| 1777982664 | 20° C | 95% | 1015.4 hPa | 0 mm | 0.45 m/s, 63° | 53 W/m² | - |
| 1777982363 | 20° C | 95% | 1015.3 hPa | 0 mm | 0.89 m/s, 183° | 51 W/m² | - |
| 1777982060 | 20° C | 96% | 1015.2 hPa | 0 mm | 0 m/s | 39 W/m² | - |
| 1777981758 | 20° C | 96% | 1015.1 hPa | 0 mm | 0 m/s | 30 W/m² | - |
| 1777981454 | 20° C | 95% | 1014.9 hPa | 0 mm | 0.45 m/s, 165° | 41 W/m² | - |
| 1777981150 | 20° C | 96% | 1014.9 hPa | 0 mm | 0.45 m/s, 80° | 33 W/m² | - |
| 1777980847 | 20° C | 96% | 1014.9 hPa | 0 mm | 0.45 m/s, 55° | 24 W/m² | - |
| 1777980543 | 20° C | 95% | 1014.9 hPa | 0 mm | 0 m/s | 20 W/m² | - |
| 1777980241 | 20° C | 95% | 1014.7 hPa | 0 mm | 0.45 m/s, 85° | 18 W/m² | - |
| 1777979936 | 20° C | 96% | 1014.7 hPa | 0 mm | 0.45 m/s, 155° | 16 W/m² | - |
| 1777979642 | 20° C | 96% | 1014.7 hPa | 0 mm | 0 m/s | 13 W/m² | - |
| 1777979327 | 20° C | 96% | 1014.7 hPa | 0 mm | 0 m/s | 11 W/m² | - |
| 1777979025 | 20° C | 96% | 1014.6 hPa | 0 mm | 0 m/s | 9 W/m² | - |
| 1777978721 | 20° C | 96% | 1014.5 hPa | 0 mm | 0 m/s | 6 W/m² | - |
| 1777978418 | 20° C | 95% | 1014.6 hPa | 0 mm | 0 m/s | 4 W/m² | - |
| 1777978114 | 20° C | 96% | 1014.5 hPa | 0 mm | 0 m/s | 3 W/m² | - |
| 1777977812 | 20° C | 95% | 1014.5 hPa | 0 mm | 0 m/s | 1 W/m² | - |
| 1777977507 | 20° C | 95% | 1014.3 hPa | 0 mm | 0 m/s | 1 W/m² | - |
| 1777977206 | 20° C | 95% | 1014.3 hPa | 0 mm | 0 m/s | 0 W/m² | - |
| 1777976903 | 20° C | 95% | 1014.2 hPa | 0 mm | 0 m/s | 0 W/m² | - |
| 1777976600 | 20.56° C | 95% | 1014.2 hPa | 0 mm | 0 m/s | 0 W/m² | - |
| 1777976295 | 20.56° C | 95% | 1014.2 hPa | 0 mm | 0 m/s | 0 W/m² | - |
| 1777975990 | 20.56° C | 95% | 1014.2 hPa | 0 mm | 0 m/s | 0 W/m² | - |
| 1777975686 | 20.56° C | 95% | 1014.1 hPa | 0 mm | 0 m/s | 0 W/m² | - |
* Rain latest hour (hover to see other rain measurements)
** Current wind speed in m/s (hover to see current wind gust speed)